Tracking 17857 objects as of 29-September-2016
HD Live streaming from Space Station
objects crossing your sky now

BREEZE-M DEB

Track BREEZE-M DEB now!
10-day predictions


NORAD ID: 34259
Int'l Code: 2006-006CA
Perigee: 1,176.8 km
Apogee: 14,973.7 km
Inclination: 50.9 °
Period: 288.0 minutes
Semi major axis: 14446 km
RCS: 0.2413 m2 (medium)
Launch date: February 28, 2006
Source: Commonwealth of Independent States (former USSR) (CIS)
Launch site: TYURATAM MISSILE AND SPACE COMPLEX (TTMTR)

Note: This is SATELLITE DEBRIS
Your satellite tracking list
Your tracking list is empty





NASA's NSSDC Master Catalog

Two Line Element Set (TLE):
1 34259U 06006CA  16272.62355239 -.00000013  00000-0  00000+0 0  9992
2 34259  50.8663 159.4580 4775275 144.9571 258.6806  5.08116862197226
Source of the keplerian elements: AFSPC

N2YO: 479